Home   Weather   Citrus Heights   Past weeks

Flag for USA Past Weather in Citrus Heights, California, USA — Yesterday and Last 2 Weeks

50 °F


Feels Like: 50 °F
Forecast: 50 / 78 °F
Wind: No wind

Location: Mather Field

Current Time: Oct 21, 2016 at 6:08:56 AM

Latest Report: Oct 21, 2016 at 4:45 AM

Visibility: 10 mi

Pressure: 29.97 "Hg

Humidity: 94%

Dew Point: 48 °F

Location of Citrus HeightsLocation

Past Weather in Citrus Heights — Graph


Citrus Heights Temperature Yesterday

Maximum temperature yesterday: 79 °F (at 3:45 PM)
Minimum temperature yesterday: 48 °F (at 3:00 AM)
Average temperature yesterday: 62 °F

High & Low Weather Summary for the Past Weeks

High86 °F (Oct 8, 2:50 PM)100% (Oct 12, 6:45 AM)30.21 "Hg (Oct 12, 6:45 AM)
Low45 °F (Oct 12, 4:45 AM)17% (Oct 8, 2:50 PM)29.71 "Hg (Oct 16, 3:45 PM)
Average63 °F62%30.00 "Hg
* Reported Oct 6 5:50 AM — Oct 21 4:45 AM, Citrus Heights, Weather by CustomWeather, © 2016

Note: Actual official high and low records may vary slightly from our data, if they occured in-between our weather recording intervals... More about our weather records


Citrus Heights Weather History for the Previous 24 Hours

Scroll right to see more
Time TempWeatherWind HumidityBarometerVisibility
4:45 AM
Fri, Oct 21
50 °FClear.No wind94%29.97 "Hg10 mi
3:55 AM48 °FClear.No wind94%29.97 "Hg10 mi
11:30 PM
Thu, Oct 20
54 °FClear.5 mph82%30.01 "Hg10 mi
10:45 PM54 °FClear.6 mph82%30.01 "Hg10 mi
9:45 PM55 °FClear.No wind77%30.01 "Hg10 mi
8:45 PM63 °FClear.No wind59%30.01 "Hg10 mi
7:45 PM66 °FClear.No wind49%30.01 "Hg10 mi
6:45 PM72 °FClear.3 mph41%30.01 "Hg10 mi
5:45 PM77 °FSunny.7 mph32%30.01 "Hg10 mi
3:45 PM79 °FPassing clouds.8 mph32%30.04 "Hg10 mi
2:55 PM77 °FSunny.6 mph32%30.05 "Hg10 mi
1:44 PM75 °FPassing clouds.5 mph34%30.09 "Hg10 mi
12:50 PM73 °FPassing clouds.6 mph38%30.11 "Hg10 mi
11:45 AM70 °FPassing clouds.7 mph43%30.14 "Hg10 mi
10:55 AM66 °FPassing clouds.6 mph52%30.15 "Hg10 mi
9:45 AM63 °FPassing clouds.No wind59%30.16 "Hg10 mi
8:50 AM57 °FPassing clouds.No wind77%30.16 "Hg10 mi
7:59 AM50 °FPassing clouds.No wind94%30.15 "Hg10 mi
6:45 AM48 °FPassing clouds.No wind87%30.14 "Hg10 mi
Weather by CustomWeather, © 2016

See weather overviewHow to use our weather pages